Regional Weather Roundup
Issued by NWS Newport/Morehead, NC

Current Version | Previous Version | Text Only | Print | Product List | Glossary On
Versions: 1 2 3 4 5 6 7 8 9 10 11 12 13 14 15 16 17 18 19 20 21 22 23 24 25 26 27 28 29 30 31 32 33 34 35 36 37 38 39 40 41 42 43 44 45 46 47 48 49 50
000
ASUS42 KMHX 181824
RWRMHX
WEATHER ROUNDUP FOR EASTERN NORTH CAROLINA
NATIONAL WEATHER SERVICE NEWPORT/MOREHEAD CITY NC
100 PM EST WED JAN 18 2017

NOTE: "FAIR" INDICATES FEW OR NO CLOUDS BELOW 12,000 FEET
WITH NO SIGNIFICANT WEATHER AND/OR OBSTRUCTIONS TO VISIBILITY

NCZ015>017-031-032-045>047-102-103-181900-
NORTH COAST

CITY           SKY/WX    TMP DP  RH WIND       PRES   REMARKS
EDENTON        MOSUNNY   70  50  49 N18G24    29.88S
ELIZABETH CITY CLOUDY    59  46  62 N21       29.89R
KITTY HAWK     NOT AVBL
MANTEO         PTSUNNY   61  56  84 N13G25    29.87R

$$

NCZ045>047-081-094-103-104-181900-
CENTRAL COAST

CITY           SKY/WX    TMP DP  RH WIND       PRES   REMARKS
FRISCO         CLOUDY    59  57  93 W10G16    29.86F FOG

$$

NCZ095-097-098-100-101-181900-
SOUTHERN COAST

CITY           SKY/WX    TMP DP  RH WIND       PRES   REMARKS
BEAUFORT       PTSUNNY   64  62  93 W10       29.89F
CEDAR ISLAND   NOT AVBL
JACKSONVILLE   CLOUDY    67  62  84 W14G22    29.91F
PINEY ISLAND   CLOUDY   N/A N/A N/A W18G24    29.87F
WILMINGTON     CLOUDY    72  61  68 W14G24    29.92F


$$

NCZ011>013-027>030-043-044-078>080-089-090>093-098-181900-
COASTAL PLAIN

CITY           SKY/WX    TMP DP  RH WIND       PRES   REMARKS
AHOSKIE          N/A     66  45  45 NW6       29.91S
CLINTON        SUNNY     71  59  64 NW8       29.93F
ELIZABETHTOWN  CLOUDY    71  57  61 NW13G20   29.93F
GOLDSBORO      SUNNY     72  50  45 W12G24    29.89F
GREENVILLE     SUNNY     72  46  40 NW16G25   29.91F
HAVELOCK       CLOUDY    67  59  75 W17G25    29.89F
KENANSVILLE    MOSUNNY   70  57  64 W12G18    29.92F
KINSTON        MOSUNNY   72  54  53 W12       29.91F
NEW BERN       CLOUDY    68  59  73 W10       29.90F
RICHLANDS      MOSUNNY   68  60  75 W7        29.92F
ROCKY MOUNT    SUNNY     70  42  36 NW20G32   29.92F
WASHINGTON     MOSUNNY   70  54  56 NW9G20    29.88F
WHITEVILLE     MOSUNNY   72  59  63 W6        29.95S

$$

AMZ130-135-150-152-154-156-158-170-250-252-270-ANZ085-086-088-633-658-670-181900-
MARINE OBSERVATIONS

STATION/POSITION TIME  TEMP    WIND        PRES    WAVE   SWELL
                       AIR SEA DIR/SP/G            HT/PER HT/PER
                 (UTC) (F)     (DEG/KT/KT) (MB)    (FT/S) (FT/S)
CHESAPEAKE LIGHT NOT AVBL
64 E VA BEACH    1750   54 57  340/ 17/ 19 1010.4    4/ 6
DUCK             1800   51 46   10/ 19/ 21 1010.8
2 E DUCK         1800      46                N/A     1/10
OREGON INLET     1800          280/  8/ 11 1010.5
13E OREGON INLT  NOT AVBL
HATTERAS CG      1800   58 54  270/ 15/ 18 1010.7
DIAMOND BUOY     1750   65 72  270/ 21/ 25 1010.6    9/ 8   2/10
CAPE LOOKOUT     1800   60     260/ 14/ 17 1011.9
BEAUFORT LAB     1800   61 50  250/  6/ 10 1011.2
30 SE NEW RVR IN 1808   60 62  260/ 16/ 21 1012.8
30 SE NEW RVR IN 1813      62                N/A     6/ 7
27 SE WRIGHTSVLE 1808   63 69  230/ 19/ 27 1012.4
5 SE WRIGHTSVLE  1708   57     220/ 10/ 12 1014.2
225 S CAPE HAT   1750   72 72  260/ 21/ 27 1015.5    7/ 7
41 SE CHARLESTON 1750   67 72  250/ 19/ 25 1016.4    4/ 5   2/ 9

$$



USA.gov is the U.S. government's official web portal to all federal, state and local government web resources and services.